TimeCDT,TemperatureF,Dew PointF,Humidity,Sea Level PressureIn,VisibilityMPH,Wind Direction,Wind SpeedMPH,Gust SpeedMPH,PrecipitationIn,Events,Conditions,WindDirDegrees,DateUTC
12:56 AM,69.1,66.0,90,29.99,10.0,North,5.8,-,N/A,,Clear,350,2012-10-07 05:56:00
1:56 AM,66.9,64.9,93,29.99,10.0,North,4.6,-,N/A,,Clear,350,2012-10-07 06:56:00
2:56 AM,66.0,64.9,96,29.99,10.0,North,6.9,-,N/A,,Clear,350,2012-10-07 07:56:00
3:56 AM,64.0,63.0,96,29.98,10.0,North,8.1,-,N/A,,Clear,350,2012-10-07 08:56:00
4:30 AM,62.6,62.6,100,29.99,10.0,North,6.9,-,N/A,,Partly Cloudy,350,2012-10-07 09:30:00
4:46 AM,62.6,62.6,100,29.98,10.0,North,8.1,-,N/A,,Mostly Cloudy,350,2012-10-07 09:46:00
4:56 AM,63.0,62.1,97,29.99,9.0,North,6.9,-,N/A,,Mostly Cloudy,350,2012-10-07 09:56:00
5:56 AM,62.1,62.1,100,30.01,8.0,North,9.2,-,N/A,,Overcast,350,2012-10-07 10:56:00
6:56 AM,62.1,61.0,96,30.02,6.0,North,9.2,-,N/A,,Overcast,350,2012-10-07 11:56:00
7:56 AM,62.1,61.0,96,30.04,6.0,North,9.2,-,N/A,,Overcast,350,2012-10-07 12:56:00
8:56 AM,62.1,60.1,93,30.06,8.0,North,12.7,-,N/A,,Overcast,350,2012-10-07 13:56:00
9:56 AM,66.0,60.1,81,30.07,10.0,North,12.7,-,N/A,,Mostly Cloudy,360,2012-10-07 14:56:00
10:14 AM,66.2,60.8,83,30.07,10.0,North,13.8,-,N/A,,Mostly Cloudy,10,2012-10-07 15:14:00
10:56 AM,66.9,60.1,79,30.06,10.0,North,16.1,21.9,N/A,,Mostly Cloudy,10,2012-10-07 15:56:00
11:56 AM,71.1,62.1,73,30.06,10.0,North,11.5,-,N/A,,Partly Cloudy,10,2012-10-07 16:56:00
12:56 PM,73.9,62.1,66,30.03,10.0,North,10.4,-,N/A,,Clear,350,2012-10-07 17:56:00
1:56 PM,78.1,63.0,60,30.00,10.0,North,10.4,-,N/A,,Clear,10,2012-10-07 18:56:00
2:56 PM,79.0,64.9,62,29.98,10.0,NNW,10.4,-,N/A,,Clear,340,2012-10-07 19:56:00
3:56 PM,80.1,64.0,58,29.98,10.0,NNE,9.2,-,N/A,,Partly Cloudy,20,2012-10-07 20:56:00
4:56 PM,77.0,64.0,64,29.97,10.0,North,10.4,-,N/A,,Scattered Clouds,360,2012-10-07 21:56:00
5:56 PM,72.0,62.1,71,29.99,10.0,North,6.9,-,N/A,,Scattered Clouds,350,2012-10-07 22:56:00
6:56 PM,69.1,61.0,75,30.02,10.0,NNW,8.1,-,N/A,,Mostly Cloudy,340,2012-10-07 23:56:00
7:56 PM,66.9,60.1,79,30.04,10.0,North,6.9,-,N/A,,Mostly Cloudy,350,2012-10-08 00:56:00
8:30 PM,66.2,57.2,73,30.05,10.0,North,9.2,-,N/A,,Mostly Cloudy,360,2012-10-08 01:30:00
8:56 PM,64.9,57.9,78,30.06,10.0,North,9.2,-,N/A,,Clear,350,2012-10-08 01:56:00
9:56 PM,63.0,55.9,78,30.07,10.0,North,11.5,-,N/A,,Clear,360,2012-10-08 02:56:00
10:56 PM,62.1,55.0,78,30.07,10.0,North,9.2,-,N/A,,Clear,360,2012-10-08 03:56:00
11:56 PM,60.1,54.0,80,30.06,10.0,North,8.1,-,N/A,,Clear,350,2012-10-08 04:56:00